Theta_e
310 312 312 311 312 311 314 317 319 320 320 322 324 324 325 324 324 326 326 327 327 327 327 327 327 327 327 326 323 323 323 324 324 323 327 329 331 332 338 338 333 331 332 336
311 312 311 311 311 310 312 315 317 319 318 321 322 324 324 325 325 325 326 326 326 326 326 326 326 326 326 327 323 322 322 323 323 323 324 332 335 342 342 340 331 331 333 337
310 311 311 310 310 310 312 313 315 317 318 320 321 323 324 324 324 324 324 324 323 324 324 324 323 324 325 326 324 322 321 321 321 322 324 327 330 334 338 340 334 333 338 338
310 310 310 310 310 310 311 311 312 314 318 320 320 323 323 323 324 324 323 323 323 323 323 322 322 322 324 325 325 325 319 320 320 321 327 327 336 341 341 341 343 339 339 338
313 311 310 310 309 310 310 311 312 315 316 318 319 322 322 322 323 324 324 323 322 321 321 321 321 321 322 322 323 324 318 319 319 322 327 327 337 343 343 344 340 342 339 340
313 312 312 310 310 309 311 311 312 314 316 319 318 319 320 321 322 322 323 321 320 320 320 321 321 321 321 321 322 324 318 319 319 325 328 329 343 343 344 345 345 344 343 341
313 313 312 311 309 310 310 311 312 314 316 317 318 319 320 321 320 321 321 320 320 320 321 322 322 324 322 323 324 329 320 320 323 328 331 334 334 338 340 341 344 343 341 340
314 313 312 312 311 311 310 310 313 314 315 315 316 317 319 319 320 320 319 319 320 323 324 326 328 330 324 324 327 334 337 340 332 334 336 339 338 344 343 342 341 340 338 337
313 313 312 311 311 311 311 310 311 311 312 314 316 316 317 319 319 320 319 319 320 323 327 332 334 333 329 326 332 336 341 343 344 342 342 341 343 343 342 341 338 338 338 338
311 313 311 311 311 311 312 310 311 310 314 313 315 317 317 318 318 319 320 320 320 321 324 329 336 335 331 334 339 342 344 345 344 343 343 343 342 341 336 334 338 338 337 337
309 311 312 311 312 312 313 311 311 312 311 311 314 316 318 319 319 320 320 319 319 320 322 328 337 335 337 339 342 344 345 345 344 344 342 340 339 338 337 337 336 336 332 334
309 311 312 311 311 310 311 313 313 315 315 313 314 318 319 320 320 320 319 318 319 319 320 328 337 337 339 341 343 344 344 343 343 341 340 339 338 338 337 336 336 335 334 334
311 310 312 310 312 312 311 310 311 313 314 317 314 316 318 318 318 317 318 318 318 318 319 324 335 337 339 342 343 343 342 341 340 338 338 338 336 335 334 334 334 334 335 334
309 312 311 312 311 311 311 311 312 312 314 313 314 315 317 318 317 317 317 317 316 317 318 322 331 337 339 341 342 342 341 339 338 337 336 335 332 333 334 335 335 335 334 334
309 312 311 310 310 310 310 310 311 312 312 313 313 314 315 316 316 316 315 314 314 317 318 320 327 337 340 341 341 340 339 338 337 335 333 332 334 335 335 335 335 334 334 333
311 311 311 311 310 310 310 310 310 310 311 312 312 313 313 313 312 313 313 313 315 318 319 320 326 337 339 340 340 339 338 337 335 333 331 332 333 333 334 334 335 334 333 332
311 311 312 312 310 309 311 311 311 312 312 312 313 313 313 313 314 314 313 313 315 318 319 321 328 336 339 341 339 337 337 335 333 331 331 332 333 332 333 333 333 334 333 332
310 310 311 311 310 312 313 314 313 314 314 315 315 315 316 316 313 313 313 315 317 318 321 328 332 338 340 340 339 337 336 334 330 330 331 331 331 331 332 333 333 333 331 331
307 310 312 313 314 313 312 313 313 312 313 313 314 315 317 316 315 314 314 315 320 324 325 329 333 338 339 339 339 337 335 331 329 330 330 330 330 331 332 333 333 332 331 331
310 305 311 314 315 316 318 312 309 307 313 311 312 317 318 319 320 318 320 323 323 325 327 329 336 338 339 338 338 336 333 328 330 330 330 329 328 332 333 333 332 332 331 330
314 313 311 313 315 315 312 311 308 315 315 309 310 311 315 317 318 318 318 319 322 324 328 331 337 337 339 339 338 335 331 329 330 330 330 329 330 330 331 332 332 332 331 331
314 315 317 316 318 317 311 310 311 311 310 310 310 313 313 314 316 317 319 321 324 327 330 334 337 338 339 339 337 334 330 329 330 330 329 329 331 332 332 332 332 332 330 330
313 313 314 315 314 312 311 311 311 310 310 311 313 312 314 313 315 317 321 322 325 329 332 336 337 339 339 338 336 333 329 329 331 330 328 330 332 332 333 333 332 331 330 330
312 311 313 312 311 311 311 311 310 310 310 311 311 312 313 315 315 318 320 323 326 329 335 337 338 339 339 338 336 333 329 329 331 331 329 331 333 333 334 333 332 330 331 329
313 312 312 312 310 310 311 309 310 309 309 311 312 312 313 313 316 319 321 322 325 329 336 337 338 339 339 337 337 330 328 330 331 331 330 331 333 333 334 333 331 330 330 330
312 312 313 313 310 310 310 310 310 308 309 312 311 311 312 315 318 317 320 325 330 335 337 338 338 339 338 337 334 329 328 330 332 331 330 330 332 334 333 332 330 328 330 326
Wind_Speed
17 12 17 16 20 29 27 29 26 29 23 25 28 34 32 32 36 29 30 27 27 28 28 27 25 23 22 26 28 27 28 26 27 25 19 19 20 18 18 18 19 18 17 16
12 19 19 19 19 24 28 30 32 22 16 21 28 33 28 27 27 34 35 33 33 31 28 27 26 25 25 26 26 22 22 25 25 25 19 16 15 16 15 15 17 16 15 16
16 20 17 15 17 20 24 27 26 29 16 19 21 29 29 28 31 32 30 31 31 30 31 30 29 27 24 24 24 24 22 22 22 21 20 18 17 14 15 15 15 16 14 16
15 16 17 19 21 21 24 24 27 26 25 19 21 22 24 26 27 28 33 31 29 27 26 27 30 30 29 29 27 26 26 25 23 21 18 18 15 14 13 14 14 14 16 18
18 17 16 18 19 21 23 21 26 20 23 25 29 17 17 17 20 20 19 26 28 28 28 29 29 29 29 28 25 24 27 26 26 22 18 18 15 13 13 15 15 16 18 18
21 20 19 17 17 19 17 17 21 18 20 22 33 24 23 22 25 22 20 20 21 19 18 17 19 20 22 23 22 21 22 25 24 19 17 17 18 16 17 17 18 16 16 16
18 9 13 18 18 18 15 17 13 15 13 16 22 23 20 7 6 12 13 7 6 7 8 11 12 14 15 19 19 16 21 23 21 16 16 19 17 17 17 18 17 18 16 15
9 6 7 7 19 18 18 18 13 19 17 20 22 15 17 17 24 16 12 12 3 7 7 9 13 13 12 14 18 15 16 18 18 18 19 19 19 16 16 16 16 14 14 13
12 6 7 13 11 14 22 18 21 23 24 19 18 24 22 8 9 9 3 5 4 9 11 13 13 10 11 12 16 17 17 18 19 20 21 21 18 17 17 16 17 15 14 13
8 12 5 2 11 20 21 12 13 14 14 17 18 21 12 25 27 16 5 1 7 12 14 17 13 7 5 10 13 16 18 20 21 21 20 19 18 17 18 18 15 14 13 12
15 6 13 9 6 8 13 18 9 16 13 16 13 16 18 12 14 12 5 5 12 15 17 18 14 5 5 11 14 18 20 22 22 21 20 20 19 18 17 15 13 12 12 11
15 6 13 16 4 9 13 8 5 11 14 15 15 3 2 14 15 8 3 11 14 17 18 18 14 5 6 13 17 19 21 21 22 21 21 20 19 17 15 14 12 11 10 10
10 6 11 10 5 9 7 13 12 13 16 14 15 9 10 11 8 5 10 16 17 19 20 18 14 3 7 14 18 19 21 21 21 21 21 20 18 16 14 13 11 11 11 11
14 13 14 13 20 11 10 10 12 12 11 17 16 21 14 17 9 12 17 20 22 21 20 18 13 3 8 14 18 20 20 21 22 20 19 17 16 15 14 13 12 12 12 11
5 14 18 20 19 17 17 18 18 19 19 19 20 18 18 19 18 17 23 28 28 21 19 17 15 2 9 15 19 20 20 21 21 19 17 16 15 14 14 13 12 12 12 12
9 10 12 17 18 19 20 21 22 23 22 23 22 24 23 25 28 26 26 24 22 20 20 17 14 2 12 16 19 20 21 21 20 19 17 15 14 14 14 13 12 13 13 13
6 6 7 14 10 12 14 17 18 19 20 18 20 20 19 21 19 20 22 22 22 21 21 20 13 7 15 19 20 22 22 21 19 18 17 15 14 14 13 12 12 13 15 14
7 8 7 5 9 9 3 9 11 14 17 17 17 19 23 23 27 23 20 20 20 22 20 15 13 6 18 21 21 22 22 21 20 18 16 15 15 14 13 12 11 12 15 14
11 3 4 4 6 12 14 2 1 2 14 17 20 18 19 20 19 20 21 21 14 15 18 16 13 9 20 23 24 24 23 22 20 20 17 15 15 14 13 12 12 12 14 14
8 7 3 4 4 4 5 9 13 4 6 13 15 14 14 17 9 8 7 10 16 18 16 15 10 13 23 26 26 26 25 23 22 20 18 14 15 14 11 11 11 11 11 13
5 2 8 10 8 3 6 14 5 4 5 19 20 21 18 10 12 23 23 23 20 20 18 14 10 18 25 26 27 27 25 24 23 21 18 16 15 13 11 10 9 11 12 13
3 5 3 4 4 3 16 11 3 7 23 20 21 17 19 19 18 20 21 21 20 19 16 10 13 19 26 27 28 28 25 24 23 21 19 18 16 13 10 10 9 10 11 13
3 4 3 3 4 13 14 14 15 19 21 23 19 20 20 16 19 20 21 20 19 17 13 10 16 22 26 28 28 27 25 25 24 22 20 19 15 12 11 10 9 8 10 11
7 4 4 11 7 13 16 13 19 22 26 24 21 19 16 17 19 21 21 18 17 14 10 13 19 24 26 28 27 25 26 26 25 23 21 19 15 13 11 9 7 7 8 10
10 8 9 9 11 19 6 23 21 26 30 22 18 14 13 17 20 19 18 18 16 13 9 17 21 24 26 28 27 24 25 26 25 23 22 18 15 13 11 9 8 7 8 9
3 7 5 8 16 16 21 25 24 28 30 24 13 13 17 16 17 17 16 12 11 10 15 17 19 23 25 27 26 25 25 26 25 23 22 20 16 13 11 9 10 11 9 11
Wind_Direction
250 255 247 255 252 249 260 267 266 255 249 254 226 240 246 244 252 249 252 249 250 251 259 264 265 267 267 273 277 272 265 266 274 286 270 253 247 235 220 219 226 228 225 218
254 249 263 279 280 269 250 252 255 261 283 245 246 243 246 249 250 251 251 252 256 260 261 263 267 266 267 267 270 279 275 265 260 271 270 245 228 215 211 214 227 221 218 212
273 268 282 281 270 259 260 252 251 251 268 239 254 252 249 244 245 252 256 255 258 259 263 266 265 266 267 264 270 273 279 277 267 262 259 239 219 215 202 206 210 209 201 198
290 287 268 259 263 264 260 251 254 249 244 242 219 253 242 233 239 243 248 251 256 258 260 265 271 273 272 272 269 266 266 268 268 261 239 230 207 199 200 193 186 192 187 184
293 289 260 252 258 265 260 253 249 240 240 249 246 251 253 259 254 252 254 255 258 263 263 268 272 273 269 263 259 254 249 255 262 253 231 225 195 197 178 169 182 173 180 181
279 278 262 260 269 292 251 256 239 246 238 230 236 241 253 252 253 250 250 251 261 261 263 262 272 273 263 251 244 239 240 241 246 237 225 204 188 180 169 167 162 163 169 174
311 286 275 234 259 272 245 243 231 221 230 242 227 228 238 242 329 294 250 235 276 279 261 275 275 277 259 239 222 218 220 225 225 216 200 187 183 176 173 166 161 163 170 175
327 325 13 240 227 254 245 231 230 222 224 233 231 234 224 238 253 207 273 263 264 338 327 300 298 283 247 230 209 201 199 199 197 187 176 169 167 160 159 158 165 164 169 175
312 286 275 246 259 264 252 250 241 264 278 246 219 219 251 226 217 204 186 204 329 352 349 336 320 292 242 216 201 195 186 179 170 164 161 160 153 151 158 159 156 162 168 185
308 301 272 276 258 253 244 262 269 243 251 240 236 209 223 216 232 234 164 85 9 7 351 350 341 323 214 189 180 172 169 164 157 155 155 154 154 154 157 160 155 160 171 171
296 281 290 249 234 238 284 226 216 261 259 255 221 221 212 241 190 147 112 27 18 3 352 355 350 346 178 169 162 157 156 153 151 151 149 146 145 147 151 155 160 170 185 189
299 289 284 281 237 179 241 228 322 263 231 252 275 72 110 155 119 113 20 14 3 357 351 359 360 13 159 156 153 152 152 151 151 149 146 146 144 148 150 154 161 173 175 181
349 259 293 286 183 208 236 262 260 248 275 276 253 236 139 153 146 69 358 346 340 344 347 353 4 19 151 156 154 153 151 150 147 147 147 145 146 150 152 155 159 162 167 165
303 265 259 279 303 314 292 282 269 277 263 260 243 263 189 202 298 323 324 315 320 326 334 345 358 354 154 162 158 155 153 151 148 149 148 147 148 150 150 152 154 161 161 163
255 265 269 269 271 280 276 268 262 256 256 264 266 267 266 279 295 310 301 300 301 312 323 336 345 326 175 166 161 157 154 152 151 150 148 148 151 149 149 152 159 163 162 163
229 255 276 292 284 271 271 267 260 254 249 254 258 265 273 277 280 281 287 291 302 309 316 321 324 261 192 172 163 160 157 156 154 150 152 154 153 150 152 155 161 165 165 166
279 269 282 267 282 294 270 264 253 254 250 255 256 260 263 266 270 275 284 289 295 298 306 310 306 269 196 177 167 161 160 158 156 154 154 156 157 154 155 158 169 174 176 171
244 241 250 277 312 247 44 32 3 333 301 288 286 283 270 265 267 275 276 282 291 293 300 305 307 247 189 176 166 163 164 162 159 156 154 156 156 156 158 166 173 180 177 168
215 241 257 248 248 280 272 310 0 284 287 295 282 274 276 278 259 262 267 272 282 294 295 298 296 222 184 174 168 166 167 165 161 158 153 151 155 155 160 169 174 171 171 169
189 213 266 259 263 290 64 349 316 257 255 357 337 316 311 338 263 249 20 309 296 293 296 295 287 191 181 172 168 168 169 166 163 160 157 153 154 155 155 169 168 162 170 172
322 187 220 249 251 257 15 332 327 271 356 312 316 307 305 296 275 304 305 299 296 292 295 289 236 187 179 171 170 170 169 168 164 161 158 156 156 156 159 156 166 160 162 163
301 323 332 300 266 0 356 337 302 291 299 297 296 290 290 287 294 294 288 293 295 293 291 272 197 181 177 172 171 171 171 167 164 161 158 157 155 152 155 152 159 167 164 165
315 353 300 248 261 289 312 283 310 319 309 313 293 286 283 278 291 290 291 293 293 290 284 236 184 178 175 173 174 171 170 167 165 163 162 162 162 160 162 155 151 168 170 163
304 320 273 310 348 327 321 287 325 323 314 305 300 288 276 291 291 288 289 291 292 290 271 200 180 174 171 173 174 172 168 167 166 165 166 168 166 168 167 164 154 170 183 170
285 321 304 295 345 332 322 329 333 327 319 299 301 275 285 293 289 286 290 292 289 277 224 183 177 171 172 171 172 171 167 168 168 168 170 171 172 168 167 162 163 169 190 180
243 326 321 328 339 326 320 322 331 318 311 306 298 282 292 291 288 284 283 290 288 271 176 170 167 168 169 168 170 170 169 170 171 172 176 177 177 173 170 171 165 176 185 171